STARLINK-31222, 58828

Orbit data source: Space-Track

STARLINK-31222, 58828 is a payload satellite owned by SpaceX/Seattle (US) in LEO that was launched on Wed, 24 Jan 2024 UTC via an FALCON 9 launch vehicle from the Air Force Western Test Range (AFWTR). Payload-class satellites include a variety of spacecraft equipped with specific instruments for various scientific and technological missions. These include communications satellites like Starlink; space stations such as the ISS; scientific satellites like the Hubble; Earth observation satellites from companies like Planet Labs, Umbra, and HawkEye 360; GPS; miniature CubeSats for education and research; and military/defense satellites.

Loading next visibility...
Identifier
58828, 2024-017C
Orbit
LEO
Country
Flag of USUS
Related business
Manufacturer
SpaceX/Seattle
Mission
Operational Commercial Communications
Bus & Motor
STARLINK V2M, Unknown motor
Mass
730 kg wet, ~700 kg dry
Launch date (UTC)
2024-01-24 (2 years ago)
Launch vehicle
FALCON 9
Launch site
Air Force Western Test Range (AFWTR)
Object type
Payload
Rocket body
Debris
Shape & HBR
Box + 2 Pan, 17.7 m
Radar Cross Section
33.884 m², Large (>1 m²)

Expand to show TLE details & history
Last TLE update: 3 days ago

TLE from 3 days ago
0 STARLINK-31222
1 58828U 24017C   26170.92447922  .00000121  00000-0  16229-4 0  9998
2 58828  53.1613  89.1091 0001394  97.0565 263.0594 15.30200377135713
Epoch: 2026-06-19T22:11Z
TLE epoch observation values (Epoch: 2026-06-19T22:11:15.004Z)
Latitude
-0.00006°
Longitude
-151.84993°
Altitude
476.229 km
Speed
7.629 km/s
True Right ascension
05h 56m 26s
True Declination
0° 00' 00"
Sunlit
Object was in daylight at epoch
Visualization orbit readout
Latitude
Unknown
Longitude
Unknown
Altitude
Unknown
Speed
Unknown
Apparent Right ascension
Unknown
Apparent Declination
Unknown
Sunlit
N/A
Visualization observer readout
Local Sidereal Time
21:23:58
Azimuth
Unknown
Elevation
Unknown
Doppler factor
Unknown
Orbital elements
Apogee altitude
476.426 km
Perigee altitude
474.515 km
Semi-major axis
6,853.607 km
Eccentricity
0.00014
Inclination
53.1613°
RAAN
89.1091°
Arg. of periapsis
97.0565°
True anomaly
263.04354°
Mean anomaly
263.0594°
Eccentric anomaly
263.05147°
Mean motion
3.82529 °/min
Orbital period
94.11 mins
BSTAR
0.000016229
Loading maneuver chart data...
Computing Atmospheric mass density...
Loading historical data...
Loading historical data...
Loading historical data...
Loading historical data...
Loading historical data...
Loading historical data...
Loading historical data...

Documentation

Showing up to 5 results
|